Weather History for Cleveland Burke, OH

Change the Weather History Date:

Saturday, March 16, 2013

  Actual Average Record
Temperature  
Mean Temperature 32 °F -  
Max Temperature 35 °F 41 °F 66 °F (2012)
Min Temperature 30 °F 29 °F 16 °F (2014)
Degree Days  
Heating Degree Days 32    
Moisture  
Dew Point 30 °F    
Average Humidity 95    
Maximum Humidity 100    
Minimum Humidity 79    
Precipitation  
Precipitation 0.20 in - - ()
Sea Level Pressure  
Sea Level Pressure 29.78 in    
Wind  
Wind Speed 8 mph (NE)    
Max Wind Speed 26 mph    
Max Gust Speed 32 mph    
Visibility 4 miles    
Events Rain , Snow    
Averages and records for this station are not official NWS values.
T = Trace of Precipitation, MM = Missing Value Source: NWS Daily Summary

Daily Weather History Graph

Daily Weather History Graph

Search for Another Location

Airport:

Trip Planner

Search our weather history database for the weather conditions in past years. The results will help you decide how hot, cold, wet, or windy it might be!

Date:

Astronomy

Mar. 16, 2013 Rise Set
Actual Time 7:36 AM EDT 7:34 PM EDT
Civil Twilight 7:08 AM EDT 8:02 PM EDT
Nautical Twilight 6:36 AM EDT 8:34 PM EDT
Astronomical Twilight 6:03 AM EDT 9:07 PM EDT
Moon 10:01 AM EDT (3/16) No Moon Set
Length of Visible Light 12h 53m
Length of Day
11h 58m
Waxing Crescent, 23% of the Moon is Illuminated
Mar 16
Waxing Crescent
Mar 19
First Quarter
Mar 27
Full
Apr 3
Last Quarter
Apr 10
New

Hourly Weather History & Observations

Time (EDT) Temp. Windchill Dew Point Humidity Pressure Visibility Wind Dir Wind Speed Gust Speed Precip Events Conditions
12:53 AM 35.1 °F - 33.1 °F 92% 29.85 in 4.0 mi Calm Calm - 0.01 in Rain Rain
1:51 AM 33.8 °F 29.6 °F 33.8 °F 100% 29.81 in 5.0 mi ESE 4.6 mph - 0.01 in Rain Rain
2:43 AM 35.6 °F 32.8 °F 33.8 °F 93% 29.79 in 5.0 mi East 3.5 mph - 0.01 in Rain Rain
2:53 AM 34.0 °F 31.0 °F 33.1 °F 96% 29.80 in 5.0 mi East 3.5 mph - 0.02 in Rain Rain
3:10 AM 33.8 °F 30.8 °F 33.8 °F 100% 29.78 in 6.0 mi East 3.5 mph - 0.00 in Rain Rain
3:48 AM 33.8 °F 30.8 °F 32.0 °F 93% 29.77 in 3.0 mi NE 3.5 mph - 0.02 in Rain Rain
3:53 AM 33.1 °F 30.0 °F 32.0 °F 96% 29.78 in 3.0 mi NE 3.5 mph - 0.02 in Rain Rain
4:05 AM 33.8 °F 27.0 °F 32.0 °F 93% 29.75 in 2.0 mi NE 8.1 mph - 0.00 in Rain Rain
4:13 AM 33.8 °F 27.0 °F 32.0 °F 93% 29.75 in 1.8 mi NE 8.1 mph - 0.00 in Rain Rain
4:23 AM 33.8 °F 25.8 °F 32.0 °F 93% 29.74 in 1.8 mi NE 10.4 mph - 0.00 in Rain Rain
4:43 AM 33.8 °F 27.7 °F 33.8 °F 100% 29.72 in 2.0 mi ENE 6.9 mph - 0.00 in Rain Rain
4:53 AM 33.1 °F 28.7 °F 33.1 °F 100% 29.75 in 3.0 mi NE 4.6 mph - 0.00 in Rain Rain
5:53 AM 33.1 °F 26.1 °F 32.0 °F 96% 29.76 in 2.5 mi NE 8.1 mph - 0.01 in Rain Rain
6:11 AM 32.0 °F 23.6 °F 32.0 °F 100% 29.74 in 1.8 mi NE 10.4 mph - 0.00 in Rain Rain
6:28 AM 32.0 °F 22.5 °F 32.0 °F 100% 29.73 in 1.2 mi NE 12.7 mph - 0.01 in Rain Rain
6:53 AM 32.0 °F 23.0 °F 32.0 °F 100% 29.76 in 1.5 mi NE 11.5 mph - 0.01 in Rain Rain
7:02 AM 32.0 °F 22.5 °F 32.0 °F 100% 29.74 in 2.0 mi NE 12.7 mph - 0.00 in Rain Rain
7:13 AM 32.0 °F 24.2 °F 32.0 °F 100% 29.73 in 1.5 mi ENE 9.2 mph - 0.00 in Rain Rain
7:27 AM 32.0 °F 25.6 °F 32.0 °F 100% 29.73 in 0.8 mi NE 6.9 mph - 0.00 in Rain Rain
7:36 AM 32.0 °F 26.4 °F 32.0 °F 100% 29.73 in 1.2 mi NE 5.8 mph - 0.00 in Rain Rain
7:50 AM 32.0 °F 27.5 °F 32.0 °F 100% 29.72 in 1.2 mi NE 4.6 mph - 0.00 in Rain Rain
7:53 AM 32.0 °F 27.5 °F 32.0 °F 100% 29.74 in 1.0 mi ENE 4.6 mph - 0.00 in Rain Rain
8:01 AM 32.0 °F 27.5 °F 32.0 °F 100% 29.71 in 0.8 mi East 4.6 mph - 0.00 in Rain Rain
8:21 AM 32.0 °F 25.6 °F 32.0 °F 100% 29.70 in 1.0 mi NE 6.9 mph - 0.00 in Rain Rain
8:29 AM 32.0 °F 24.2 °F 32.0 °F 100% 29.72 in 1.5 mi NNE 9.2 mph - 0.00 in Rain Rain
8:38 AM 30.2 °F 21.3 °F 30.2 °F 100% 29.71 in 1.8 mi NE 10.4 mph - 0.01 in Rain Light Freezing Rain
8:46 AM 30.2 °F 21.3 °F 30.2 °F 100% 29.71 in 2.5 mi NE 10.4 mph - 0.01 in Rain Light Freezing Rain
8:53 AM 30.9 °F 22.2 °F 30.9 °F 100% 29.73 in 2.5 mi NE 10.4 mph - 0.01 in Rain Light Freezing Rain
9:03 AM 30.2 °F 21.9 °F 30.2 °F 100% 29.70 in 1.8 mi NE 9.2 mph - 0.01 in Rain Light Freezing Rain
9:21 AM 30.2 °F 21.3 °F 30.2 °F 100% 29.71 in 2.5 mi NNE 10.4 mph - 0.01 in Rain Light Freezing Rain
9:53 AM 30.9 °F 21.2 °F 30.9 °F 100% 29.73 in 2.5 mi NE 12.7 mph - 0.02 in Rain Light Freezing Rain
9:58 AM 30.2 °F 20.8 °F 30.2 °F 100% 29.71 in 3.0 mi NE 11.5 mph - 0.00 in Rain Light Freezing Rain
10:26 AM 30.2 °F 22.6 °F 30.2 °F 100% 29.70 in 2.5 mi NE 8.1 mph - 0.01 in Rain Light Freezing Rain
10:37 AM 30.2 °F 22.6 °F 30.2 °F 100% 29.70 in 1.5 mi NE 8.1 mph - 0.02 in Rain Light Freezing Rain
10:43 AM 30.2 °F 21.3 °F 30.2 °F 100% 29.70 in 2.0 mi NE 10.4 mph - 0.02 in Rain Light Freezing Rain
10:53 AM 30.9 °F 22.2 °F 30.9 °F 100% 29.71 in 2.0 mi NE 10.4 mph - 0.03 in Rain Light Freezing Rain
11:23 AM 30.2 °F 20.2 °F 30.2 °F 100% 29.68 in 3.0 mi NE 12.7 mph - 0.03 in Rain Light Freezing Rain
11:53 AM 30.9 °F 21.2 °F 30.0 °F 96% 29.70 in 5.0 mi NE 12.7 mph - 0.04 in Rain Light Freezing Rain
12:53 PM 30.9 °F 19.1 °F 28.9 °F 92% 29.71 in 9.0 mi NE 18.4 mph 23.0 mph 0.01 in Rain Light Freezing Rain
1:53 PM 30.9 °F 18.4 °F 28.9 °F 92% 29.75 in 10.0 mi NE 20.7 mph - 0.02 in   Overcast
2:41 PM 30.2 °F 17.1 °F 28.4 °F 93% 29.76 in 2.5 mi NE 21.9 mph 29.9 mph 0.00 in Rain Light Freezing Rain
2:47 PM 30.2 °F 16.2 °F 28.4 °F 93% 29.77 in 1.5 mi NE 25.3 mph 29.9 mph 0.00 in Snow Light Snow
2:53 PM 30.0 °F 15.7 °F 28.9 °F 96% 29.79 in 1.8 mi NE 26.5 mph 32.2 mph 0.00 in Snow Light Snow
3:00 PM 30.2 °F 16.8 °F 28.4 °F 93% 29.77 in 2.5 mi NE 23.0 mph 32.2 mph 0.00 in Snow Light Snow
3:07 PM 30.2 °F 17.4 °F 28.4 °F 93% 29.77 in 3.0 mi NE 20.7 mph 29.9 mph 0.00 in   Overcast
3:53 PM 30.0 °F 16.9 °F 28.0 °F 92% 29.83 in 10.0 mi NE 21.9 mph 28.8 mph 0.00 in   Overcast
4:13 PM 30.2 °F 17.4 °F 28.4 °F 93% 29.82 in 10.0 mi NE 20.7 mph 27.6 mph N/A   Overcast
4:53 PM 30.0 °F 18.3 °F 27.0 °F 88% 29.86 in 10.0 mi NE 17.3 mph 23.0 mph N/A   Overcast
5:02 PM 30.2 °F 18.5 °F 26.6 °F 86% 29.85 in 10.0 mi NNE 17.3 mph - N/A   Overcast
5:53 PM 30.0 °F 20.0 °F 26.1 °F 85% 29.90 in 10.0 mi NNE 12.7 mph - N/A   Overcast
6:53 PM 30.0 °F 20.0 °F 25.0 °F 82% 29.94 in 10.0 mi NNE 12.7 mph - N/A   Overcast
7:53 PM 30.0 °F 23.2 °F 24.1 °F 79% 29.97 in 10.0 mi NNE 6.9 mph - N/A   Overcast
8:53 PM 30.0 °F 24.1 °F 24.1 °F 79% 30.00 in 10.0 mi North 5.8 mph - N/A   Overcast
9:53 PM 30.0 °F 24.1 °F 25.0 °F 82% 30.02 in 10.0 mi North 5.8 mph - N/A   Overcast
10:53 PM 30.0 °F - 25.0 °F 82% 30.02 in 10.0 mi Calm Calm - N/A   Overcast
11:53 PM 30.0 °F - 24.1 °F 79% 30.03 in 10.0 mi Calm Calm - N/A   Overcast